Date,TemperatureHighF,TemperatureAvgF,TemperatureLowF,DewpointHighF,DewpointAvgF,DewpointLowF,HumidityHigh,HumidityAvg,HumidityLow,PressureMaxIn,PressureMinIn,WindSpeedMaxMPH,WindSpeedAvgMPH,GustSpeedMaxMPH,PrecipitationSumIn
2013-1-19,48,42,37,30,25,21,69,52,36,30.18,29.97,16,5,22,0.00
2013-1-20,52,40,27,30,22,1,68,50,25,30.00,29.64,22,6,32,0.00
2013-1-21,27,23,19,14,5,-3,75,47,27,30.17,29.86,17,3,24,0.00
2013-1-22,23,18,10,14,-2,-16,76,45,21,30.14,29.82,14,4,22,0.00
2013-1-23,14,9,3,-8,-17,-23,45,30,21,30.21,30.11,15,5,21,0.00
2013-1-24,18,9,0,-14,-18,-23,45,28,20,30.29,30.13,16,6,24,0.00
2013-1-25,22,14,6,5,-14,-23,64,28,20,30.37,30.11,12,4,20,0.00
2013-1-26,23,15,8,5,-4,-16,67,43,20,30.30,30.06,15,4,21,0.00
2013-1-27,30,19,10,-2,-6,-10,48,33,21,30.53,30.30,13,5,18,0.00
2013-1-28,32,24,14,20,6,-10,77,50,26,30.52,30.08,8,2,11,0.00
2013-1-29,32,29,25,26,23,19,80,78,75,30.25,30.07,4,1,6,0.00
2013-1-30,60,39,32,54,33,26,87,80,78,30.25,29.55,16,2,26,0.32
2013-1-31,61,47,30,56,34,8,86,63,32,29.68,29.09,26,8,52,0.60
2013-2-1,31,26,20,12,3,-6,55,36,22,30.16,29.68,17,6,24,0.00
2013-2-2,30,23,15,8,-1,-11,53,35,24,30.31,30.11,14,4,18,0.00
2013-2-3,27,23,17,16,13,8,73,66,53,30.12,29.80,6,2,9,0.00
2013-2-4,28,21,16,14,7,-1,74,54,29,29.88,29.79,17,4,24,0.00
2013-2-5,26,23,20,16,10,3,73,59,47,30.08,29.99,4,1,7,0.00
2013-2-6,37,29,23,22,12,-6,74,52,25,30.37,29.98,16,4,22,0.02
2013-2-7,32,24,16,4,-3,-7,45,31,22,30.59,30.37,8,2,11,0.00
2013-2-8,32,27,21,26,19,3,84,71,44,30.54,29.63,14,6,24,0.00
2013-2-9,26,22,13,20,12,-5,79,64,43,30.27,29.61,19,6,27,0.00
2013-2-10,41,22,8,6,-4,-12,44,32,20,30.46,30.26,9,3,14,0.00
2013-2-11,46,35,18,42,25,-2,85,68,35,30.41,29.69,9,2,12,0.20
2013-2-12,44,38,33,37,25,19,84,58,45,29.97,29.70,17,6,23,0.01
2013-2-13,44,34,26,22,19,14,65,53,42,29.95,29.76,10,2,16,0.00
2013-2-14,46,35,28,21,17,13,71,49,27,30.07,29.79,8,2,11,0.00
2013-2-15,53,38,25,32,26,14,80,63,42,30.08,29.99,11,2,17,0.00
2013-2-16,34,33,29,28,25,23,80,74,67,30.02,29.98,11,3,14,0.00
2013-2-17,33,30,14,25,18,-12,73,63,24,29.99,29.64,23,6,33,0.04
2013-2-18,31,20,12,-2,-8,-12,35,27,20,30.24,29.76,21,8,28,0.00
2013-2-19,49,35,17,39,19,-9,85,54,27,30.24,29.67,12,2,17,0.19
2013-2-20,40,31,24,36,12,-2,85,48,25,29.87,29.63,18,8,28,0.01
2013-2-21,33,26,22,10,6,2,53,42,31,30.28,29.85,17,8,27,0.00
2013-2-22,42,31,22,20,14,10,63,52,35,30.45,30.28,11,3,16,0.00
2013-2-23,37,32,27,28,23,15,81,68,58,30.40,29.97,8,1,13,0.00
2013-2-24,35,33,31,29,28,26,83,80,75,29.97,29.76,10,4,19,0.65
2013-2-25,39,34,28,31,26,21,81,73,62,30.25,29.97,6,1,9,0.26
2013-2-26,36,35,34,26,25,20,70,68,52,30.33,30.21,9,1,13,0.26
2013-2-27,42,38,34,37,33,24,85,82,66,30.22,29.66,17,6,27,1.16
2013-2-28,45,37,32,36,31,27,83,78,66,29.72,29.61,6,1,9,0.00
2013-3-1,43,37,33,29,25,20,78,62,50,29.77,29.61,10,3,16,0.00
2013-3-2,40,36,32,24,22,20,62,57,52,29.76,29.71,10,3,14,0.00
2013-3-3,41,34,30,26,22,19,75,63,52,29.73,29.64,10,4,14,0.00
2013-3-4,39,33,26,21,18,13,65,54,44,29.83,29.68,15,8,24,0.00
2013-3-5,45,35,28,27,22,15,76,58,46,30.14,29.83,10,4,15,0.00
2013-3-6,39,36,33,31,28,25,78,73,65,30.15,30.09,21,7,40,0.08
2013-3-7,34,32,29,26,25,23,80,75,65,30.11,30.05,15,7,27,0.09
2013-3-8,38,32,29,32,25,23,81,77,62,30.22,30.00,14,6,23,0.01
2013-3-9,52,38,27,28,20,14,78,51,23,30.41,30.21,11,4,18,0.09
2013-3-10,42,37,28,30,26,20,78,65,58,30.48,30.41,9,3,12,0.00
2013-3-11,42,42,42,29,29,29,58,58,58,30.47,30.47,4,4,7,0.00
2013-3-12,42,42,42,29,29,29,58,58,58,30.47,30.47,4,4,7,0.00
2013-3-13,42,42,42,29,29,29,58,58,58,30.47,30.47,4,4,7,0.00
2013-3-14,25,23,22,2,-2,-4,42,34,28,29.92,29.88,17,7,24,0.00
2013-3-15,41,30,19,24,8,-1,71,42,21,29.95,29.72,13,5,19,0.00
2013-3-16,41,33,26,23,10,2,69,40,23,29.94,29.76,9,2,11,0.00
2013-3-17,37,30,24,13,4,-6,53,34,20,30.37,29.93,14,4,21,0.00
2013-3-18,39,28,16,18,1,-10,65,33,21,30.52,30.28,8,2,11,0.00
2013-3-19,36,31,27,30,25,17,81,78,63,30.28,29.68,15,6,24,0.37
2013-3-20,40,31,24,21,14,8,74,52,30,29.89,29.77,20,5,25,0.02
2013-3-21,38,30,25,23,17,12,75,58,39,29.89,29.69,6,2,9,0.00
2013-3-22,29,28,28,18,14,13,68,55,52,29.70,29.69,11,4,14,0.00
2013-3-23,42,36,27,18,14,9,62,41,27,29.86,29.74,20,7,29,0.00
2013-3-24,35,35,35,14,14,14,42,42,42,29.86,29.86,3,3,11,0.00
2013-3-25,35,35,35,14,14,14,42,42,42,29.86,29.86,3,3,11,0.00
2013-3-26,35,35,35,14,14,14,42,42,42,29.86,29.86,3,3,11,0.00
2013-3-27,35,35,35,14,14,14,42,42,42,29.86,29.86,3,3,11,0.00
2013-3-28,44,36,35,30,17,14,64,46,42,30.12,29.86,4,3,11,0.01
2013-3-29,57,46,36,31,26,21,69,49,27,30.14,30.06,11,4,15,0.00
2013-3-30,58,46,35,29,21,11,63,40,20,30.18,30.08,12,4,16,0.00
2013-3-31,60,46,31,34,22,17,64,40,22,30.20,30.01,15,3,22,0.00
2013-4-2,33,33,33,4,4,4,28,28,28,30.00,30.00,6,6,10,0.00
2013-4-3,44,35,29,12,8,2,47,33,22,30.25,30.02,17,9,26,0.00
2013-4-4,57,40,28,18,13,8,51,34,20,30.38,30.16,9,5,14,0.00
2013-4-5,61,52,39,30,21,15,55,31,21,29.96,29.72,14,6,22,0.00
2013-4-6,39,34,34,25,16,15,59,48,45,30.06,29.96,9,3,13,0.00
2013-4-7,55,41,34,32,21,15,46,44,41,30.18,30.06,8,5,21,0.00
2013-4-8,55,55,55,32,32,32,41,41,41,30.18,30.18,8,8,21,0.00
2013-4-9,55,55,55,32,32,32,41,41,41,30.18,30.18,8,8,21,0.00
2013-4-10,55,55,55,32,32,32,41,41,41,30.18,30.18,8,8,21,0.00
2013-4-11,56,48,39,46,38,24,95,73,36,30.22,29.91,7,3,11,0.01
2013-4-12,40,38,36,35,32,30,87,82,68,30.23,29.85,14,6,23,0.45
2013-4-13,55,43,35,37,33,31,87,70,44,30.01,29.81,10,4,14,0.06
2013-4-14,53,45,36,37,28,22,84,54,32,30.30,30.00,14,5,23,0.00
2013-4-15,61,46,34,35,29,22,79,52,33,30.48,30.30,9,2,15,0.00
2013-4-16,67,51,35,48,40,30,91,68,43,30.48,30.17,14,4,21,0.00
2013-4-17,68,58,43,50,36,22,84,49,18,30.42,30.16,15,4,21,0.00
2013-4-18,63,51,36,44,33,25,80,53,26,30.50,30.23,13,3,19,0.00
2013-4-19,73,62,51,62,57,44,97,83,61,30.23,29.77,15,5,25,0.00
2013-4-20,64,53,42,61,40,22,94,64,33,30.32,29.71,15,6,20,0.59
2013-4-21,55,42,32,30,20,14,73,43,21,30.75,30.32,17,4,20,0.00
2013-4-22,53,42,31,35,29,23,84,61,32,30.80,30.65,14,5,24,0.00
2013-4-23,41,39,37,40,36,29,96,89,71,30.66,30.18,13,4,16,0.06
2013-4-24,77,55,40,50,43,36,96,70,23,30.18,29.91,12,5,18,0.00
2013-4-25,64,54,45,51,34,-7,92,51,10,30.36,29.93,40,5,97,0.02
2013-4-26,64,52,41,40,34,24,85,52,31,30.50,30.36,12,3,19,0.00
2013-4-27,68,51,35,43,37,32,97,63,28,30.50,30.38,10,2,14,0.00
2013-4-28,70,54,36,44,33,22,95,51,22,30.43,30.31,10,2,17,0.00
2013-4-29,68,56,44,48,35,17,89,50,22,30.36,30.29,14,2,15,0.00
2013-4-30,72,56,41,38,27,18,71,36,13,30.45,30.33,11,2,14,0.00
2013-5-1,64,56,37,39,33,27,77,45,27,30.55,30.45,7,3,11,0.00
2013-5-2,64,63,46,38,35,35,70,37,33,30.57,30.54,6,4,8,0.00
2013-5-3,63,51,41,45,40,36,86,67,51,30.59,30.46,14,4,22,0.00
2013-5-4,63,51,36,47,37,21,94,63,22,30.46,30.37,13,3,19,0.00
2013-5-5,64,43,35,44,37,31,97,82,47,30.40,30.35,8,2,12,0.00
2013-5-6,76,57,38,50,45,36,95,68,35,30.37,30.23,8,2,11,0.00
2013-5-7,78,63,44,58,51,42,96,69,47,30.27,30.19,8,2,11,0.00
2013-5-8,72,62,53,63,58,51,98,86,62,30.29,30.14,9,2,18,0.14
2013-5-9,71,60,54,62,58,54,98,91,66,30.14,29.97,14,1,21,0.94
2013-5-10,83,67,54,59,55,51,98,69,36,30.06,30.00,8,2,11,0.00
2013-5-11,70,63,57,62,58,52,94,83,69,30.03,29.81,12,3,27,0.08
2013-5-12,73,61,48,60,50,31,94,72,40,29.92,29.67,14,3,23,0.05
2013-5-13,60,49,38,35,30,24,76,50,29,30.13,29.92,11,4,21,0.00
2013-5-14,58,48,38,36,30,26,74,51,31,30.14,30.07,12,3,15,0.00
2013-5-15,43,41,40,34,33,32,74,71,67,30.14,30.13,4,2,6,0.00
2013-5-16,82,67,52,52,42,29,93,46,15,29.91,29.75,14,5,20,0.00
2013-5-17,70,59,50,44,41,34,75,54,28,30.31,29.91,10,3,15,0.00
2013-5-18,74,60,44,49,44,37,91,58,28,30.40,30.31,8,2,13,0.01
2013-5-19,71,59,49,54,50,44,96,73,46,30.43,30.32,9,2,14,0.08
2013-5-20,84,68,55,66,60,54,97,79,50,30.32,30.03,14,2,17,0.01
2013-5-21,67,67,67,63,63,63,88,88,88,30.08,30.08,0,0,2,0.01
2013-5-22,67,67,67,63,63,63,88,88,88,30.08,30.08,0,0,2,0.01
2013-5-23,67,67,67,63,63,63,88,88,88,30.08,30.08,0,0,2,0.01
2013-5-24,67,67,67,63,63,63,88,88,88,30.08,30.08,0,0,2,0.01
2013-5-25,67,54,40,63,51,38,94,90,84,30.08,29.81,13,4,21,0.97
2013-5-26,60,49,38,42,38,35,94,69,44,30.20,29.82,17,7,26,0.02
2013-5-27,73,57,39,43,38,30,91,54,21,30.26,30.17,15,4,20,0.00
2013-5-28,65,51,43,54,44,40,89,78,49,30.32,30.26,4,1,6,0.01
2013-5-29,79,65,57,67,60,54,96,85,66,30.29,30.09,11,2,17,0.73
2013-5-30,90,76,63,69,66,61,95,73,44,30.20,30.13,11,2,15,1.09
2013-5-31,95,81,66,72,66,60,94,63,38,30.21,30.06,12,2,15,0.00
2013-6-1,91,79,67,68,64,60,82,63,42,30.10,29.99,13,3,17,0.01
2013-6-2,88,76,67,69,65,62,89,69,45,30.01,29.86,14,4,21,0.00
2013-6-3,81,70,62,68,63,48,94,81,57,29.96,29.87,9,2,11,0.45
2013-6-4,73,62,50,51,44,38,75,53,36,30.19,29.94,12,4,17,0.00
2013-6-5,75,63,50,52,47,44,85,59,36,30.29,30.19,8,2,11,0.00
2013-6-6,74,62,49,56,50,42,92,65,36,30.30,30.20,8,2,13,0.01
2013-6-7,60,56,53,58,54,52,98,94,88,30.20,29.89,12,3,15,2.35
2013-6-8,79,63,52,64,57,52,98,82,55,30.11,29.71,11,4,18,0.48
2013-6-9,80,68,56,58,55,52,95,66,42,30.28,30.11,11,3,15,0.00
2013-6-10,71,62,55,62,57,52,96,85,63,30.30,30.10,9,2,13,0.76
2013-6-11,68,60,56,62,57,56,98,92,78,30.10,29.67,9,3,14,1.13
2013-6-12,71,63,57,58,53,50,96,72,53,29.93,29.67,14,5,21,0.18
2013-6-13,65,57,51,57,52,48,95,85,69,29.93,29.75,9,2,14,0.20
2013-6-14,75,60,51,58,53,50,96,79,47,29.89,29.71,11,3,15,0.00
2013-6-15,79,68,57,53,48,41,74,53,26,30.05,29.89,9,4,14,0.00
2013-6-18,80,64,58,66,60,57,96,87,62,30.04,29.95,8,2,11,0.00
2013-6-19,77,64,54,58,53,48,96,71,41,30.25,30.00,8,2,11,0.17
2013-6-20,70,56,51,54,51,48,95,82,55,30.36,30.25,3,1,4,0.02
2013-6-22,68,67,66,57,56,56,70,69,68,30.28,30.27,2,1,5,0.00
2013-6-23,91,77,63,70,64,55,81,66,48,30.28,30.13,9,3,13,0.00
2013-6-24,93,79,68,72,68,63,91,72,48,30.15,30.00,9,3,14,0.11
2013-6-25,91,78,68,70,67,64,90,71,46,30.05,29.86,10,3,18,0.91
2013-6-26,86,76,69,71,68,65,92,76,51,29.97,29.85,11,2,14,0.01
2013-6-27,71,67,64,68,64,62,96,92,83,29.97,29.85,5,2,8,0.00
2013-6-28,84,72,63,75,67,62,98,86,62,29.86,29.61,10,3,17,0.00
2013-6-29,85,75,70,70,68,65,94,79,56,29.84,29.62,11,3,17,0.00
2013-6-30,86,76,70,73,69,66,90,78,62,30.05,29.84,10,2,17,0.01
2013-7-1,84,75,71,75,71,68,94,86,69,30.20,30.05,8,2,12,0.00
2013-7-2,86,77,73,73,71,69,90,81,63,30.27,30.19,8,2,14,0.00
2013-7-3,88,78,66,73,70,64,94,78,58,30.32,30.26,12,3,14,0.00
2013-7-4,91,82,72,74,72,70,93,74,53,30.33,30.22,8,3,11,0.00
2013-7-5,93,83,74,74,72,70,86,70,50,30.29,30.16,8,3,11,0.00
2013-7-6,92,83,74,74,71,69,87,69,51,30.21,30.10,9,2,14,0.00
2013-7-7,93,81,71,74,70,66,88,71,52,30.14,30.05,7,2,9,0.00
2013-7-8,91,79,68,74,70,66,95,77,50,30.16,30.02,7,3,12,0.00
2013-7-9,79,70,67,70,67,63,96,88,74,30.21,30.14,4,1,6,0.00
2013-7-10,86,75,68,74,70,65,96,86,66,30.17,29.90,8,2,13,0.00
2013-7-11,84,76,71,73,70,66,95,84,67,30.04,29.90,4,1,6,0.00
2013-7-12,77,71,66,67,61,55,86,71,61,30.30,30.03,12,4,15,0.00
2013-7-13,76,70,64,71,66,59,95,88,80,30.41,30.29,5,1,8,0.00
2013-7-14,91,80,72,74,71,68,96,77,52,30.42,30.31,8,2,14,0.00
2013-7-15,93,81,72,77,72,69,93,75,50,30.32,30.22,6,1,8,0.00
2013-7-16,93,82,72,73,68,64,87,64,44,30.29,30.22,7,2,11,0.00
2013-7-17,95,82,70,74,70,67,93,69,44,30.30,30.13,5,1,9,0.00
2013-7-18,97,84,75,76,72,70,90,69,44,30.14,30.05,8,2,11,0.00
2013-7-19,96,85,74,76,74,70,94,71,48,30.06,29.86,11,3,21,0.00
2013-7-20,92,83,74,76,73,65,89,72,51,29.93,29.77,11,2,15,0.00
2013-7-21,89,78,69,68,65,61,89,66,43,30.09,29.93,7,2,9,0.00
2013-7-22,87,75,65,70,67,63,96,78,49,30.12,29.98,8,2,11,0.00
2013-7-23,88,74,70,76,70,66,96,88,63,29.99,29.65,12,2,17,0.00
2013-7-24,83,76,68,73,67,56,95,76,51,30.05,29.69,10,3,14,0.00
2013-7-25,68,59,58,57,54,48,95,82,65,30.19,30.05,8,3,14,0.00
2013-7-26,72,64,59,66,60,57,95,88,80,30.15,30.06,10,4,14,0.00
2013-7-27,84,71,61,67,63,58,96,77,50,30.17,30.11,8,2,11,0.00
2013-7-28,86,73,62,71,66,59,96,79,53,30.13,30.06,5,1,8,0.00
2013-7-29,85,74,64,71,67,62,95,80,61,30.16,30.07,8,1,14,0.00
2013-7-30,83,71,63,63,58,55,86,64,43,30.22,30.15,11,3,17,0.00
2013-7-31,84,72,61,66,60,56,87,67,44,30.25,30.15,7,2,9,0.00
2013-8-1,81,69,59,67,62,57,95,78,54,30.17,29.99,8,1,12,0.00
2013-8-2,80,68,64,67,63,61,96,85,59,29.99,29.91,8,2,12,0.00
2013-8-3,81,70,63,64,61,58,90,75,51,29.99,29.91,6,2,9,0.00
2013-8-4,80,68,59,60,56,52,89,68,44,30.01,29.89,8,3,10,0.00
2013-8-5,76,64,54,54,49,44,85,61,33,30.15,30.00,9,3,13,0.00
2013-8-6,81,66,49,58,52,47,94,65,38,30.25,30.15,5,1,6,0.00
2013-8-7,80,68,56,63,56,51,95,70,39,30.29,30.22,6,2,11,0.00
2013-8-8,82,72,64,70,66,57,91,81,66,30.24,30.13,7,2,11,0.00
2013-8-9,76,73,71,74,70,67,95,91,84,30.14,29.23,7,2,13,0.00
2013-8-10,83,73,61,72,61,50,94,69,41,30.17,29.91,11,3,19,0.00
2013-8-11,80,68,54,62,54,50,86,65,43,30.11,30.03,8,2,12,0.00
2013-8-12,84,71,60,64,59,55,88,69,41,30.06,29.95,8,2,10,0.00
2013-8-13,76,68,62,67,63,58,93,83,67,29.95,29.71,6,1,8,0.00
2013-8-14,74,66,58,63,54,50,92,68,46,29.99,29.69,14,4,23,0.00
2013-8-15,58,56,54,52,51,50,87,84,77,30.03,29.99,3,1,5,0.00
2013-8-16,79,66,56,60,54,51,88,67,41,30.22,30.13,6,2,14,0.00
2013-8-17,83,70,59,63,58,54,85,67,43,30.30,30.22,4,2,8,0.00
2013-8-18,82,69,59,64,59,53,90,73,39,30.30,30.11,4,1,6,0.00
2013-8-19,81,70,60,63,59,55,86,70,47,30.11,29.99,8,2,10,0.00
2013-8-20,86,74,64,66,62,58,85,68,44,30.12,30.01,6,2,9,0.00
2013-8-21,88,75,64,67,63,59,86,67,42,30.17,30.06,7,2,9,0.00
2013-8-22,84,74,65,71,67,61,91,79,62,30.07,29.86,8,2,11,0.00
2013-8-23,80,72,61,67,59,51,91,67,43,30.14,29.85,11,3,14,0.00
2013-8-24,79,66,55,52,49,46,77,57,32,30.31,30.14,8,3,11,0.00
2013-8-25,84,69,56,59,54,50,87,63,32,30.38,30.22,7,2,11,0.00
2013-8-26,79,71,63,66,62,55,89,73,56,30.22,29.91,8,2,11,0.00
2013-8-27,85,72,65,71,67,63,95,84,58,29.92,29.85,6,1,8,0.00
2013-8-28,87,74,62,71,65,60,96,77,47,29.98,29.87,8,1,10,0.00
2013-8-29,68,64,59,65,61,55,96,91,85,30.08,29.96,9,2,18,0.00
2013-8-30,76,68,60,67,62,56,93,81,72,30.05,29.92,6,2,11,0.00
2013-8-31,80,75,68,72,70,66,94,85,74,29.87,29.82,7,2,10,0.00
2013-9-1,79,73,68,75,70,66,94,91,83,29.90,29.82,7,1,9,0.00
2013-9-2,82,74,71,74,70,69,94,88,73,29.89,29.73,8,2,14,0.00
2013-9-3,78,71,61,70,67,57,95,85,71,29.85,29.72,7,2,12,0.00
2013-9-4,80,68,58,59,57,55,89,70,43,29.95,29.83,10,3,13,0.00
2013-9-5,71,62,50,62,54,45,91,75,45,30.15,29.89,10,1,13,0.00
2013-9-6,69,56,43,49,43,39,86,63,36,30.26,30.11,6,2,10,0.00
2013-9-7,85,63,49,55,50,22,85,63,36,30.11,29.88,8,2,98,0.00
2013-9-8,75,64,48,61,52,40,88,65,36,30.11,29.77,14,3,22,0.00
2013-9-9,69,56,42,50,44,38,88,66,38,30.25,30.11,5,1,13,0.00
2013-9-10,76,66,53,69,61,48,93,85,77,30.17,30.05,11,2,15,0.00
2013-9-11,95,80,70,75,71,66,94,76,47,30.10,29.98,10,3,15,0.00
2013-9-12,86,75,68,73,68,65,93,80,58,30.01,29.71,8,2,18,0.00
2013-9-13,79,69,67,67,66,64,95,89,63,29.71,29.61,6,1,8,0.00
2013-9-14,72,62,51,56,52,49,99,72,52,30.04,29.89,9,2,13,0.00
2013-9-15,52,50,48,51,49,47,99,96,91,30.25,30.04,4,2,6,0.00
2013-9-16,67,58,53,56,52,49,95,81,58,30.28,30.18,7,2,9,0.02
2013-9-17,62,49,39,44,38,34,99,68,38,30.65,30.35,8,2,11,0.00
2013-9-18,45,42,40,44,42,40,99,98,93,30.59,30.54,3,0,4,0.00
2013-9-22,67,56,48,50,46,44,85,69,49,30.01,29.80,10,3,14,0.46
2013-9-23,63,52,43,44,41,38,90,69,46,30.20,30.01,13,3,19,0.01
2013-9-24,67,52,40,44,41,36,95,68,35,30.24,29.99,11,3,16,0.00
2013-9-25,68,56,45,53,47,43,96,73,50,30.18,30.03,9,2,14,0.00
2013-9-29,80,64,50,58,54,49,99,75,35,30.27,30.00,5,1,7,0.00
2013-9-30,75,67,54,67,63,54,99,86,57,30.17,29.71,11,3,15,0.43
2013-10-1,68,56,43,61,49,38,99,76,51,30.18,29.74,10,3,14,0.04
2013-10-2,63,51,40,44,40,38,94,69,47,30.23,30.07,10,4,17,0.01
2013-10-3,67,54,40,44,42,37,96,69,34,30.24,29.99,10,3,16,0.00
2013-10-4,68,60,47,58,52,43,99,77,51,30.20,30.03,8,2,11,0.84
2013-10-5,69,61,56,61,58,56,99,90,73,30.26,30.14,3,1,5,0.04
2013-10-6,59,56,54,58,56,54,99,97,93,30.38,30.22,8,2,12,0.45
2013-10-7,76,64,55,71,62,54,99,92,72,30.29,29.89,14,3,23,0.05
2013-10-8,66,54,46,55,44,38,90,69,39,30.52,30.01,8,2,12,0.00
2013-10-9,61,50,44,46,41,38,98,73,45,30.75,30.51,9,2,14,0.00
2013-10-10,63,52,43,52,48,43,99,88,68,30.64,30.40,6,2,10,0.00
2013-10-11,70,57,50,56,50,45,99,80,57,30.42,30.18,10,2,13,0.00
2013-10-12,60,54,50,55,51,46,98,90,76,30.54,30.22,12,3,19,0.00
2013-10-13,59,51,40,50,46,40,99,85,64,30.63,30.50,11,2,18,0.00
2013-10-14,65,49,34,49,42,34,99,80,40,30.58,30.21,5,1,8,0.00
2013-10-15,67,56,45,52,49,44,99,80,54,30.40,30.18,4,1,9,0.00
2013-10-16,60,53,47,56,51,46,99,91,76,30.23,29.97,5,1,7,0.00
2013-10-17,71,60,49,61,56,49,99,88,61,29.99,29.72,8,2,11,0.01
2013-10-18,66,59,45,60,49,41,97,73,44,29.98,29.62,14,4,21,0.02
2013-10-19,65,53,42,46,41,37,90,66,37,30.01,29.85,9,2,11,0.00
2013-10-20,53,50,48,50,47,39,95,87,62,29.93,29.81,14,2,20,0.00
2013-10-21,67,52,41,42,37,33,81,59,33,30.34,30.09,9,2,11,0.00
2013-10-22,66,51,40,52,44,36,99,78,50,30.12,29.77,7,2,11,0.00
2013-10-23,50,43,34,39,33,31,96,70,50,29.99,29.73,6,1,9,0.00
2013-10-24,53,43,35,34,27,16,82,57,26,30.10,29.81,14,3,20,0.00
2013-10-25,49,40,31,33,27,24,82,61,38,30.29,30.10,11,3,16,0.00
2013-10-26,54,42,31,35,27,18,82,59,24,30.42,30.04,10,3,16,0.00
2013-10-27,53,46,36,37,30,26,87,55,37,30.28,30.02,15,4,19,0.00
2013-10-28,57,43,32,33,29,20,81,59,36,30.56,30.28,14,3,20,0.00
2013-10-29,50,37,29,26,19,10,81,50,23,30.73,30.48,8,2,12,0.00
2013-10-30,55,41,29,40,34,24,95,76,55,30.57,30.31,8,1,10,0.00
2013-10-31,61,50,34,58,47,33,99,91,80,30.43,29.93,11,2,17,0.04
2013-11-1,68,64,60,61,58,53,94,82,63,29.93,29.55,18,6,32,0.13
2013-11-2,66,55,43,52,43,37,96,69,35,29.85,29.66,6,2,8,0.00
2013-11-3,50,38,30,44,20,6,82,52,22,30.64,29.82,11,4,17,0.00
2013-11-4,42,32,24,16,11,4,71,44,21,30.97,30.64,10,2,14,0.00
2013-11-5,52,37,23,31,24,15,82,62,38,30.99,30.65,8,1,12,0.00
2013-11-6,60,47,36,42,37,29,86,69,47,30.73,30.37,11,2,17,0.00
2013-11-19,32,31,29,14,13,12,50,48,44,30.44,30.36,12,7,18,0.00
2013-11-20,41,31,23,12,7,-4,53,37,17,30.78,30.44,10,4,15,0.00
2013-11-21,49,34,20,32,16,6,70,50,24,30.92,30.54,8,1,11,0.00
2013-11-22,48,44,41,47,41,32,96,88,70,30.54,29.99,4,1,6,0.08
2013-11-23,48,39,27,45,22,7,93,52,22,30.09,29.96,14,7,21,0.00
2013-11-24,27,22,18,10,-10,-20,51,26,14,30.47,30.04,21,10,33,0.00
2013-11-25,25,17,14,-13,-16,-19,27,21,15,30.68,30.47,14,6,21,0.00
2013-11-26,39,34,30,34,18,10,91,54,33,30.63,30.26,11,2,14,0.09
2013-11-27,61,48,35,60,46,29,99,93,80,30.25,29.38,13,5,21,1.18
2013-11-28,35,28,21,29,8,-8,80,45,20,30.72,29.71,19,7,28,0.00
2013-11-29,34,26,19,10,3,-10,62,39,23,30.98,30.69,10,2,13,0.00
2013-11-30,19,16,14,0,-2,-6,51,43,32,31.07,30.98,5,2,6,0.00
2013-12-1,36,32,18,33,27,12,95,82,58,30.65,30.20,3,1,5,0.08
2013-12-2,39,35,31,38,34,29,99,95,92,30.50,30.09,4,1,5,0.00
2013-12-3,50,38,31,39,31,26,99,79,48,30.18,30.02,7,3,11,0.00
2013-12-4,47,33,27,28,25,22,87,72,43,30.44,30.18,4,1,6,0.00
2013-12-5,55,42,30,54,38,25,97,86,75,30.48,30.09,8,1,16,0.00
2013-12-6,56,48,33,54,44,30,95,87,65,30.32,30.03,8,3,12,0.32
2013-12-7,37,32,25,31,24,16,91,74,48,30.71,30.30,12,3,117,0.13
2013-12-8,29,26,19,17,11,7,73,54,40,30.83,30.51,5,1,7,0.00
2013-12-9,35,30,24,32,26,10,92,85,49,30.78,30.14,7,2,10,0.11
2013-12-10,32,29,19,30,26,11,93,87,70,30.30,30.09,4,1,8,0.01
2013-12-11,28,22,16,15,12,9,78,66,55,30.70,30.26,11,2,18,0.00
2013-12-12,24,17,8,11,0,-15,69,49,20,30.59,30.31,16,3,19,0.00
2013-12-13,29,20,12,10,2,-100,60,46,36,30.56,30.32,15,0,23,0.00
2013-12-14,23,13,9,18,-3,-17,82,50,24,30.87,30.32,12,4,12,0.00
2013-12-15,33,26,16,31,20,9,91,81,69,30.32,29.51,21,8,21,0.12
2013-12-16,27,21,11,16,4,-8,82,50,22,30.39,29.87,21,6,24,4.97
2013-12-17,17,10,1,11,0,-9,75,64,50,30.49,30.00,16,4,16,0.00
2013-12-18,33,24,15,17,13,8,81,64,45,30.25,30.01,18,6,18,0.01
2013-12-19,45,31,19,22,17,10,71,56,39,30.27,30.03,16,5,21,0.13
2013-12-20,54,41,30,33,27,21,73,59,38,30.34,29.95,13,3,13,0.01
2013-12-21,59,49,41,46,39,-100,82,70,57,30.16,29.90,13,0,13,0.00
2013-12-22,64,52,36,57,48,33,91,84,66,30.20,29.88,19,4,19,0.00
2013-12-23,39,34,32,38,32,30,96,92,90,30.40,29.76,11,3,13,0.41
2013-12-24,38,31,24,35,17,4,92,57,32,30.45,30.12,20,6,117,0.00
2013-12-25,24,17,12,8,-6,-15,53,35,21,30.73,29.99,24,6,24,0.01
2013-12-26,31,24,14,25,14,-2,82,65,47,30.67,29.63,13,3,13,0.00
2013-12-27,33,26,18,17,14,10,73,59,44,30.56,29.72,18,4,18,0.00
2013-12-28,48,34,25,25,19,13,70,55,35,30.47,30.05,17,4,20,0.00
2013-12-29,43,36,28,37,28,19,94,74,55,30.31,29.52,19,4,19,0.61
2013-12-30,38,30,17,34,17,-2,90,61,25,30.35,29.68,21,7,26,0.01
2013-12-31,26,18,12,6,0,-6,60,47,27,30.42,29.38,14,4,14,0.00
2014-1-1,27,20,13,6,-2,-8,55,39,22,30.60,30.40,21,4,21,0.00
2014-1-2,20,12,0,9,1,-11,69,63,49,30.58,29.93,21,8,21,0.00